Weather History for Kimball, NE

Change the Weather History Date:

Tuesday, July 1, 2014

  Actual Average (KSNY) Record (KSNY)
Temperature  
Mean Temperature 62 °F 73 °F  
Max Temperature 74 °F 89 °F 102 °F (2002)
Min Temperature 49 °F 58 °F 39 °F (1959)
Degree Days  
Heating Degree Days 4 0  
Month to date heating degree days 0  
Since 1 June heating degree days 59  
Since 1 July heating degree days 0  
Cooling Degree Days 0 8  
Month to date cooling degree days 8  
Year to date cooling degree days 167  
Since 1 June cooling degree days 145  
Growing Degree Days 12 (Base 50)    
Moisture  
Dew Point 39 °F    
Average Humidity 44    
Maximum Humidity 73    
Minimum Humidity 22    
Precipitation  
Precipitation 0.00 in 0.09 in 0.94 in (1956)
Month to date precipitation 0.09  
Year to date precipitation 10.03  
Sea Level Pressure  
Sea Level Pressure 30.20 in    
Wind  
Wind Speed 11 mph (NNW)    
Max Wind Speed 23 mph    
Max Gust Speed 32 mph    
Visibility 10 miles    
Events      
T = Trace of Precipitation, MM = Missing Value Source: NWS Daily Summary

Daily Weather History Graph

Daily Weather History Graph

Search for Another Location

Airport:

Trip Planner

Search our weather history database for the weather conditions in past years. The results will help you decide how hot, cold, wet, or windy it might be!

Date:

Astronomy

Jul. 01, 2014 Rise Set
Actual Time 6:25 AM CDT 9:31 PM CDT
Civil Twilight 5:52 AM CDT 10:04 PM CDT
Nautical Twilight 5:09 AM CDT 10:47 PM CDT
Astronomical Twilight 4:18 AM CDT 11:38 PM CDT
Moon 10:38 AM CDT (7/1) 11:53 PM CDT (7/1)
Length of Visible Light 16h 12m
Length of Day
15h 05m
Waxing Crescent, 17% of the Moon is Illuminated
Jul 1
Waxing Crescent
Jul 5
First Quarter
Jul 12
Full
Jul 18
Last Quarter
Jul 26
New

Hourly Weather History & Observations

Time (CDT) Temp. Dew Point Humidity Pressure Visibility Wind Dir Wind Speed Gust Speed Precip Events Conditions
12:35 AM 52.3 °F 41.2 °F 66% 30.15 in 10.0 mi West 4.6 mph - N/A   Clear
12:55 AM 49.5 °F 41.2 °F 73% 30.15 in 10.0 mi WNW 9.2 mph - N/A   Clear
1:15 AM 50.9 °F 41.2 °F 69% 30.14 in 10.0 mi NW 10.4 mph - N/A   Clear
1:35 AM 52.0 °F 41.4 °F 67% 30.14 in 10.0 mi NW 9.2 mph - N/A   Clear
1:55 AM 50.7 °F 41.4 °F 70% 30.15 in 10.0 mi WNW 9.2 mph - N/A   Clear
2:15 AM 53.4 °F 40.5 °F 61% 30.15 in 10.0 mi NNW 6.9 mph - N/A   Clear
2:35 AM 50.2 °F 41.0 °F 71% 30.17 in 10.0 mi WNW 5.8 mph - N/A   Scattered Clouds
2:55 AM 51.4 °F 41.0 °F 68% 30.17 in 10.0 mi WNW 9.2 mph - N/A   Mostly Cloudy
3:15 AM 54.0 °F 40.1 °F 59% 30.17 in 10.0 mi WNW 9.2 mph - N/A   Scattered Clouds
3:35 AM 53.4 °F 40.1 °F 61% 30.19 in 10.0 mi WNW 8.1 mph - N/A   Clear
3:55 AM 54.3 °F 39.9 °F 58% 30.19 in 10.0 mi WNW 10.4 mph - N/A   Clear
4:15 AM 53.4 °F 40.1 °F 61% 30.19 in 10.0 mi NW 8.1 mph - N/A   Clear
4:35 AM 54.5 °F 39.2 °F 56% 30.19 in 10.0 mi NW 6.9 mph - N/A   Clear
4:55 AM 49.5 °F 40.1 °F 70% 30.20 in 10.0 mi NW 6.9 mph - N/A   Clear
5:15 AM 50.2 °F 40.1 °F 68% 30.20 in 10.0 mi WNW 8.1 mph - N/A   Clear
5:35 AM 50.0 °F 40.1 °F 69% 30.21 in 10.0 mi WNW 9.2 mph - N/A   Clear
6:35 AM 50.5 °F 39.7 °F 66% 30.22 in 10.0 mi West 6.9 mph - N/A   Clear
6:55 AM 50.7 °F 40.1 °F 67% 30.22 in 10.0 mi WNW 9.2 mph - N/A   Clear
7:15 AM 52.7 °F 40.1 °F 62% 30.22 in 10.0 mi WNW 9.2 mph - N/A   Clear
7:35 AM 53.1 °F 40.5 °F 62% 30.23 in 10.0 mi West 10.4 mph - N/A   Clear
7:55 AM 55.2 °F 40.3 °F 57% 30.23 in 10.0 mi WNW 11.5 mph - N/A   Clear
8:15 AM 57.2 °F 39.9 °F 52% 30.24 in 10.0 mi WNW 12.7 mph - N/A   Clear
8:35 AM 58.6 °F 40.1 °F 50% 30.24 in 10.0 mi WNW 16.1 mph - N/A   Clear
8:55 AM 60.1 °F 41.0 °F 49% 30.24 in 10.0 mi WNW 12.7 mph 20.7 mph N/A   Clear
9:15 AM 61.2 °F 41.5 °F 48% 30.24 in 10.0 mi NW 15.0 mph 20.7 mph N/A   Clear
9:35 AM 62.8 °F 40.6 °F 44% 30.23 in 10.0 mi NW 18.4 mph 25.3 mph N/A   Clear
9:55 AM 63.5 °F 39.6 °F 41% 30.23 in 10.0 mi NW 19.6 mph 27.6 mph N/A   Clear
10:15 AM 64.6 °F 39.9 °F 40% 30.23 in 10.0 mi NNW 19.6 mph 28.8 mph N/A   Clear
10:35 AM 65.3 °F 40.5 °F 40% 30.23 in 10.0 mi NNW 20.7 mph 29.9 mph N/A   Clear
10:55 AM 65.7 °F 40.3 °F 39% 30.22 in 10.0 mi NNW 21.9 mph 28.8 mph N/A   Clear
11:15 AM 66.0 °F 40.1 °F 39% 30.22 in 10.0 mi NNW 21.9 mph 28.8 mph N/A   Clear
11:35 AM 67.5 °F 38.5 °F 35% 30.22 in 10.0 mi NNW 23.0 mph 28.8 mph N/A   Clear
11:55 AM 67.8 °F 38.8 °F 35% 30.22 in 10.0 mi NNW 17.3 mph 28.8 mph N/A   Clear
12:15 PM 68.5 °F 37.8 °F 32% 30.22 in 10.0 mi NNW 23.0 mph 32.2 mph N/A   Clear
12:35 PM 69.3 °F 38.5 °F 32% 30.22 in 10.0 mi NNW 21.9 mph 28.8 mph N/A   Clear
12:55 PM 69.4 °F 39.0 °F 33% 30.21 in 10.0 mi NNW 18.4 mph 27.6 mph N/A   Clear
1:15 PM 70.0 °F 37.4 °F 30% 30.21 in 10.0 mi NNW 19.6 mph 28.8 mph N/A   Clear
1:35 PM 70.2 °F 37.9 °F 31% 30.21 in 10.0 mi NNW 19.6 mph 27.6 mph N/A   Scattered Clouds
1:55 PM 70.3 °F 38.3 °F 31% 30.20 in 10.0 mi NNW 18.4 mph 27.6 mph N/A   Scattered Clouds
2:15 PM 71.4 °F 37.2 °F 29% 30.20 in 10.0 mi NW 15.0 mph 23.0 mph N/A   Scattered Clouds
2:35 PM 72.0 °F 36.5 °F 27% 30.19 in 10.0 mi NNW 18.4 mph 24.2 mph N/A   Scattered Clouds
2:55 PM 72.5 °F 37.2 °F 28% 30.19 in 10.0 mi NNW 15.0 mph 24.2 mph N/A   Scattered Clouds
3:15 PM 73.4 °F 35.6 °F 25% 30.19 in 10.0 mi North 18.4 mph 23.0 mph N/A   Scattered Clouds
3:35 PM 73.2 °F 35.8 °F 26% 30.19 in 10.0 mi North 17.3 mph 23.0 mph N/A   Scattered Clouds
3:55 PM 73.0 °F 34.7 °F 25% 30.18 in 10.0 mi NNW 16.1 mph 26.5 mph N/A   Scattered Clouds
4:15 PM 73.8 °F 33.8 °F 23% 30.18 in 10.0 mi NW 16.1 mph 24.2 mph N/A   Clear
4:35 PM 74.7 °F 33.8 °F 22% 30.18 in 10.0 mi North 15.0 mph 24.2 mph N/A   Scattered Clouds
4:55 PM 73.0 °F 34.7 °F 25% 30.18 in 10.0 mi North 15.0 mph 19.6 mph N/A   Scattered Clouds
5:15 PM 74.7 °F 34.2 °F 23% 30.18 in 10.0 mi NNW 16.1 mph 20.7 mph N/A   Scattered Clouds
5:35 PM 74.3 °F 34.7 °F 24% 30.18 in 10.0 mi North 13.8 mph 24.2 mph N/A   Scattered Clouds
5:55 PM 74.1 °F 34.9 °F 24% 30.18 in 10.0 mi North 15.0 mph 23.0 mph N/A   Clear
6:15 PM 72.9 °F 35.4 °F 25% 30.18 in 10.0 mi NNE 12.7 mph - N/A   Clear
6:35 PM 72.5 °F 35.1 °F 25% 30.18 in 10.0 mi North 13.8 mph 19.6 mph N/A   Scattered Clouds
6:55 PM 71.2 °F 36.0 °F 27% 30.18 in 10.0 mi North 13.8 mph - N/A   Scattered Clouds
7:15 PM 71.4 °F 38.5 °F 30% 30.18 in 10.0 mi North 13.8 mph - N/A   Scattered Clouds
7:35 PM 70.3 °F 40.3 °F 34% 30.19 in 10.0 mi NNE 13.8 mph - N/A   Scattered Clouds
7:55 PM 68.2 °F 40.3 °F 36% 30.19 in 10.0 mi NNE 15.0 mph - N/A   Scattered Clouds
8:15 PM 67.6 °F 40.1 °F 37% 30.19 in 10.0 mi NNE 11.5 mph - N/A   Scattered Clouds
8:35 PM 67.1 °F 40.6 °F 38% 30.21 in 10.0 mi NNE 13.8 mph 17.3 mph N/A   Mostly Cloudy
8:55 PM 66.4 °F 40.8 °F 39% 30.21 in 10.0 mi NNE 11.5 mph - N/A   Overcast
9:15 PM 65.3 °F 41.5 °F 42% 30.22 in 10.0 mi NNE 9.2 mph - N/A   Mostly Cloudy
9:35 PM 64.4 °F 41.9 °F 44% 30.22 in 10.0 mi NE 8.1 mph - N/A   Overcast
9:55 PM 64.0 °F 41.4 °F 43% 30.23 in 10.0 mi NNE 5.8 mph - N/A   Overcast
10:15 PM 63.9 °F 41.0 °F 43% 30.24 in 10.0 mi NNE 6.9 mph - N/A   Overcast
10:35 PM 63.5 °F 41.0 °F 44% 30.25 in 10.0 mi NNE 5.8 mph - N/A   Overcast
10:55 PM 62.8 °F 41.2 °F 45% 30.26 in 10.0 mi NNE 6.9 mph - N/A   Overcast
11:10 PM 62.2 °F 41.4 °F 46% 30.27 in 10.0 mi NE 6.9 mph - N/A   Mostly Cloudy
11:35 PM 61.0 °F 44.2 °F 54% 30.27 in 10.0 mi NE 9.2 mph - N/A   Overcast